Погода в Гомеле

Погода в Гомеле : погода сейчас, прогноз погоды и архив. Всё, что Вы хотите узнать о погоде в Гомеле!

Хотите узнать прогноз погоды в Гомеле? Тогда Вам сюда: Погода в Гомеле

Поиск расширенной информации на нашем сайте:

Другие новости

Новости СМИ2

Главная страница сайта

Новости сайта

02.10.2013

Напоминаем, что на нашем новом сайте вы можете получить высокодетализированные прогнозы погоды по пунктам России, СНГ и мира (включающие важные для авиации метеовеличины, такие как направление и скорость ветра, видимость, явления погоды, количество и форма облачности, нижняя и верхняя граница облачности), а также ознакомиться с разнообразными материалами по авиационной метеорологии и подборкой полезных ссылок на эту тему.

Сайт Метеоцентр.Азия посвящён разработке технологий оптимизации авиаметеорологического обслуживания, включая проектирование и перспективное создание нескольких автоматизированных авиаметеорологических систем:
- система выпуска высокодетальных прогностических карт явлений погоды для нижнего воздушного пространства по России и ближнему зарубежью;
- система верификации прогнозов TAF (выпускаемых синоптиками официальных АМСГ РФ и ближнего зарубежья) и AUTOTAF (выпускаемых сайтом Метеоцентр.Азия) - выявление ошибок, онлайн-сопоставление с фактической погодой METAR, автоматическое внесение коррективов в прогнозы при резком отклонении фактической погоды от прогноза, подсчёт оправдываемости прогнозов по элементам и в целом;
- система обработки, анализа и отображения авиаметеорологической информации для применения провайдерами метеорологической информации.

Рекомендуем: Мобильные аудио поздравления на телефон с днем рождения http://www.prorebenka.com.

Погода в Гомеле - сегодня

Время (UTC), дата Ветер
(°,м/с) 
Видим.   Явления Облачность Т
(°С)
Тd
(°С)
f(%) Тe
(°С)
Pmin
(гПа)
dP
(гПа)
Po
(мм)
O2
(г/м3)
Тmin Tmax R s Состояние
почвы
21 19.02.17 230 (ЮЗ) 4{10}  20000 м    10/10 800 м 
[Sc]
+1.5 -3.2 71 -1  1019.1  -0.4  752  302           
00 20.02.17 250 (З) 18000 м    10/10 570 м 
[Sc]
+1 -2.6 77 -1  1018.3  -0.9  752  302           
03 20.02.17 230 (ЮЗ) 4{10}  17000 м    10/10 660 м 
[Sc]
+1 -3 75 -1  1017.1  -1.1  751  302        11   
06 20.02.17 200 (Ю) 18000 м    10/10 900 м 
[Sc]
+1.1 -3 74 -1  1015.7  -1.4  750  301  +0.8      11  равномерный
мокрый или
старый снег
100% 
09 20.02.17 210 (ЮЗ) 19000 м    8/8 870 м 
[Sc]
+3.3 -2.8 64 +2  1015.1  -0.5  750  299           
12 20.02.17 230 (ЮЗ) 5-10{11}  23000 м    8/6 1140 м верхняя 
[Sc|Ci]
+4.8 -2.7 58 +3  1012.6  -2.3  748  296           
15 20.02.17 240 (ЮЗ) 3{11}  20000 м    10/10 1200 м 
[Sc]
+4.4 -2.2 62 +3  1011.1  -1.5  747  296           
18 20.02.17 220 (ЮЗ) 24000 м    8/8 930 м 
[Sc]
+2.9 -2.5 68 +2  1008.8  -2.4  745  297    +5.3     
21 20.02.17 200 (Ю) 7-12{13}  18000 м    9/9 900 м 
[Sc]
+1.5 -2.4 75 -2  1005.8  -3  743  298           
00 21.02.17 200 (Ю) 7-12{12}  14000 м    9/9 1140 м 
[Sc]
+0.9 -2.2 80 -3  1002.7  -3.1  740  298           
03 21.02.17 200 (Ю) 6-12{14}  17000 м    10/10 1080 м 
[Sc]
+1.5 -2.1 77 -2  999  -3.6  738  296         
06 21.02.17 200 (Ю) 8-11{15}  3100 м  снег  10/10 210 м 
[Frnb|Ns]
-0.2 -1 94 -4  996.3  -2.8  736  297  -0.2    10  равномерный
мокрый или
старый снег
100% 
09 21.02.17 220 (ЮЗ) 5-10{11}  8000 м  слаб. дождь{снег}  10/10 210 м 
[Frnb|Ns]
+0.7 -0.3 93 -2  994.6  -1.6  734  295           
12 21.02.17 230 (ЮЗ) 4{11}  10 км  {снег, дождь}  10/10 240 м 
[Sc]
+2.1 +1.2 94 993.8  -0.7  734  293           
15 21.02.17 230 (ЮЗ) 3{10}  10 км    10/10 420 м 
[St]
+3 +1.8 92 +2  993.5  -0.3  734  292         
18 21.02.17 230 (ЮЗ) 10 км    10/10 450 м 
[St]
+2.7 +1.9 94 +1  993.9  0.4  734  292    +3.1   
21 21.02.17 230 (ЮЗ) 10 км  {дождь, морось}  10/10 450 м 
[Sc]
+2.3 +1.3 93 +2  994.4  0.5  734  293           
00 22.02.17 250 (З) 10 км  {дождь, морось}  10/10 420 м 
[Sc]
+2.1 +0.6 90 +1  994.8  0.4  735  294           
03 22.02.17 260 (З) 10 км  {дождь}  9/9 700 м 
[Sc]
+1.9 -0 87 996  1.1  735  294      0.7   
06 22.02.17 270 (З) 12000 м  {дождь}  9/9 660 м 
[Sc]
+2 -0.3 85 +1  997.9  1.9  737  295  +1.7    0.7  равномерный
мокрый или
старый снег
100% 
09 22.02.17 290 (З) 17000 м  {дождь}  10/10 360 м 
[Sc]
+2.1 -0.2 85 1000.1  2.2  738  295           
12 22.02.17 320 (СЗ) 20000 м  {дождь, морось}  10/10 1020 м 
[Sc]
+2.3 -2.4 71 1001.3  1.2  739  296           
15 22.02.17 220 (ЮЗ) 20000 м    9/9 1050 м 
[Sc]
+1.6 -2.7 73 +1  1001.2  -0.2  739  296      0.0     
18 22.02.17 190 (Ю) 20000 м    10/0 средняя 
[Ac As]
+0.2 -3 79 -2  999.3  -1.9  738  297    +2.6  0.0   
21 22.02.17 190 (Ю) 1700 м  ливневой снег  10/10 210 м кучево-дожд. 
[Cb cap]
-0.4 -1.2 94 -3  995.9  -3.4  735  297           
Время (UTC), дата Ветер
(°,м/с) 
Видим.   Явления Облачность Т
(°С)
Тd
(°С)
f(%) Тe
(°С)
Pmin
(гПа)
dP
(гПа)
Po
(мм)
O2
(г/м3)
Тmin Tmax R s Состояние
почвы

Для получения пояснительной информации подведите курсор к названию столбца.

ПОГОДА в Гомеле - архив

Всё, что Вы хотите узнать о погоде в Гомеле - удобно и подробно!

Выберите нужную дату (начиная с 1 января 2015* года) и нажмите кнопку "Найти".
Будут отображены архивные сводки погоды по пункту Гомель, начиная с указанной даты.


Отображать данные в формате CSV (для использования в таблицах Excel)


Внимание! Наш архив погоды предназначен исключительно для личного некоммерческого использования в познавательных целях. Если Вам необходимы официальные справки о состоянии погоды (для производственных, юридических, коммерческих и т.п. целей), обращайтесь в органы Росгидромета.

*Примечание: данная дата относится к архиву по метеостанциям СССР (Россия, СНГ, Балтия).
Архив по метеостанциям Зарубежной Европы и Азии (кроме Китая) хранится 10 дней, по другим регионам земного шара (Китай, Африка, Америка, Австралия, Океания) - 1 день.

Гомель - район местоположения метеостанции


Название, широта, долгота, высота метеостанции:
Гомель (город) 52.4°ш. 30.9°д. 126 м над ур. моря [Беларусь]

Дополнительная информация

В oтличие oт бoльшинства пoгoдных сайтoв мы публикуем пoдрoбную метеoинфoрмацию в детальнoм прoфессиoнальнoм фoрмате.

Характеристики температуры и влажнoсти вoздуха измеряются на высoте 2 м в тени вдали oт зданий и деревьев.
Скoрoсть ветра измеряется на высoте 10 м (на урoвне рoста челoвека скoрoсть ветра ниже в 1.5-2 раза). Если метеoстанция нахoдится в гoрoде или в лесу, тo скoрoсть ветра занижена на 2-4 м/с пo сравнению с oткрытым местoм. Скoрoсть ветра над акватoриями крупных рек и oзёр, а также на вершинах хoлмoв на 2-5 м/с выше, чем в oбычных услoвиях.
Атмoсфернoе давление в разных тoчках местнoсти мoжет значительнo oтличаться oт давления на метеoстанции, в зависимoсти oт услoвий рельефа (при пoдъёме на 10 м давление пoнижается примернo на 1 мм рт.ст.).